Location: Unspecified
(0.0000°N, 0.0000°E)
Time: 07:39:20
(UTC+00:00)

Transit 4A - Pass Details

Date: 30 May 2022
Orbit: 864 x 980 km, 66.8° (Epoch: 24 June)

Event Time Altitude Azimuth Distance (km) Brightness Sun altitude
Rises 11:46:02 0° 19° (NNE) 3,535 11.2 68.0°
Reaches altitude 10° 11:50:53 10° 54° (NE) 2,564 10.6 68.1°
Maximum altitude 11:52:24 11° 69° (ENE) 2,487 10.4 68.2°
Drops below altitude 10° 11:53:54 10° 84° (E) 2,549 10.4 68.2°
Sets 11:58:38 0° 118° (ESE) 3,466 10.8 68.2°
